Regional Weather Roundup
Issued by NWS Jackson, KY

Home | Current Version | Previous Version | Graphics & Text | Print | Product List | Glossary On
Versions: 1 2 3 4 5 6 7 8 9 10 11 12 13 14 15 16 17 18 19 20 21 22 23 24 25 26 27 28 29 30 31 32 33 34 35 36 37 38 39 40 41 42 43 44 45 46 47 48 49 50
000
ASUS43 KJKL 200319
RWRJKL

EAST KENTUCKY HOURLY WEATHER ROUNDUP
NATIONAL WEATHER SERVICE JACKSON KY
1000 PM EST FRI DEC 19 2014

NOTE: "FAIR" INDICATES FEW OR NO CLOUDS BELOW 12,000 FEET WITH
NO SIGNIFICANT WEATHER AND/OR OBSTRUCTIONS TO VISIBILITY.

* THESE REPORTS ARE NOT UNDER NWS QUALITY CONTROL AND MAY NOT
  REPORT WEATHER SUCH AS PRECIPITATION AND FOG.

KYZ079-080-083-085-087-088-110-112-115-119-120-200400
...EASTERN KENTUCKY...

CITY           SKY/WX    TMP DP  RH WIND       PRES   REMARKS
JACKSON        MOCLDY    28  21  75 VRB5      30.22S WCI  23
LONDON         PTCLDY    30  22  72 N6        30.21F WCI  24
SOMERSET*      CLEAR     30  23  74 NE3       30.24F
MONTICELLO*    PTCLDY    30  25  82 CALM      30.25F
MIDDLESBORO*   PTCLDY    32  28  86 CALM      30.20F
HARLAN APT*    MOCLDY    34  27  75 CALM      30.18S
HAZARD APT*    CLEAR     30  25  80 NE3       30.22S
BLACK MTN*       N/A     30  23  74 CALM        N/A
PIKEVILLE APT* CLEAR     27  23  86 NE7       30.21F WCI  19
BIG SANDY*     PTCLDY    27  23  85 NE7       30.24F WCI  19
MOREHEAD APT*  PTCLDY    25  21  86 NE5       30.27F WCI  19
ASHLAND*       CLOUDY    30  19  64 NE5       30.27F WCI  25
$$

KYZ035-036-041-042-044-050-067-078-099-200400
...CENTRAL KENTUCKY...

CITY           SKY/WX    TMP DP  RH WIND       PRES   REMARKS
MT STERLING*   CLEAR     27  23  86 NE7       30.27F WCI  19
FLEMING/MASON* CLOUDY    25  21  86 E3        30.28F
DANVILLE*      PTCLDY    27  23  86 NE5       30.25S WCI  21
RICHMOND*      PTCLDY    27  21  80 NE6       30.24F WCI  20
LEXINGTON      CLEAR     24  20  84 NE7       30.25F WCI  16
FRANKFORT      PTCLDY    26  20  77 NE5       30.25F WCI  20
$$

KYZ091>093-OHZ055-061-077-WVZ005-015-034-035-042-200400
...SOUTHERN OHIO/WEST VIRGINIA...

CITY           SKY/WX    TMP DP  RH WIND       PRES   REMARKS
COVINGTON      CLOUDY    30  20  66 E7        30.25F WCI  23
COLUMBUS       CLOUDY    30  21  69 E3        30.29R
DAYTON         CLOUDY    30  22  72 CALM      30.28F
WILMINGTON     CLOUDY    29  21  72 E5        30.26F WCI  24
HUNTINGTON     CLOUDY    29  22  75 NE7       30.27F WCI  22
CHARLESTON     CLOUDY    30  22  72 NE3       30.27F
PINEVILLE*     MOCLDY    28  28  99 MISG      30.25F
BECKLEY        CLOUDY    25  20  81 N6        30.18F WCI  18
BLUEFIELD      PTCLDY    28  21  75 CALM      30.16S
$$

VAZ002-007-008-TNZ017-027-036-066-071-200400
...SOUTHWEST VIRGINIA/EAST TENNESSEE...

CITY           SKY/WX    TMP DP  RH WIND       PRES   REMARKS
WISE*          MOCLDY    30  27  86 NE3       30.14F
JONESVILLE*    MOCLDY    30  28  93 CALM      30.19F
ABINGDON*      MOCLDY    32  26  78 CALM      30.16S
BRISTOL        MOCLDY    32  26  78 CALM      30.16F
KNOXVILLE      CLOUDY    38  27  64 N5        30.17R WCI  34
OAK RIDGE      MOCLDY    39  27  62 NE3       30.19S
CROSSVILLE     CLOUDY    35  26  69 NE3       30.18R
NASHVILLE      CLOUDY    37  28  70 NE5       30.24S WCI  33
$$

...KEY TO REMARKS...
VSB - VISIBILITY IN MILES
WCI - WIND CHILL INDEX
HX  - HEAT INDEX

$$



USA.gov is the U.S. government's official web portal to all federal, state and local government web resources and services.